Wind_Speed
32 32 33 33 32 32 33 32 32 29 25 23 23 22 21 19 18 17 16 14 13 12 12 13 13 14 13 13 14 14 14 14 13 14 14 13 13 14 14 14 14 14 15 16
33 34 35 34 34 33 33 32 31 29 26 24 25 23 22 21 19 16 15 14 13 13 13 14 14 13 13 14 14 14 14 14 14 14 14 14 15 16 16 16 16 16 15 16
34 34 34 36 34 34 33 33 31 30 27 26 25 24 23 21 19 17 14 14 14 14 14 14 14 13 14 14 14 14 15 15 15 15 15 15 15 16 17 17 18 17 16 16
34 35 37 34 34 34 33 32 31 30 29 28 27 25 23 22 20 17 15 15 16 16 15 15 15 15 15 15 15 15 15 14 14 14 14 14 15 15 16 16 16 16 17 18
33 36 37 35 35 35 33 33 31 30 31 30 28 25 23 21 19 18 17 17 17 17 17 17 17 16 16 16 15 16 15 14 14 14 14 14 14 14 15 16 16 16 16 17
33 35 37 33 34 34 33 33 31 31 31 30 29 26 24 22 20 19 19 19 18 18 18 17 17 17 17 17 17 16 15 14 14 15 14 14 13 14 15 16 16 16 17 17
32 34 34 32 34 34 35 32 31 30 30 29 30 28 26 24 23 21 20 18 17 17 17 17 17 17 17 16 16 16 16 15 15 15 14 14 14 15 15 15 15 15 16 17
32 33 33 31 34 37 35 31 31 30 29 29 30 30 28 26 24 22 20 18 18 17 17 17 17 17 17 17 17 17 16 16 15 15 15 15 15 15 15 16 16 15 16 17
31 30 29 32 32 33 33 32 32 31 30 30 29 29 29 26 24 22 20 19 18 18 18 18 18 18 18 17 17 17 16 16 15 15 15 15 14 15 15 15 15 16 16 17
31 31 30 32 32 33 32 32 33 32 31 31 31 31 29 27 25 21 20 20 19 19 19 19 19 18 17 17 17 16 15 15 15 15 14 14 14 14 14 15 15 15 16 17
30 31 31 32 32 32 32 32 32 32 32 31 29 29 28 28 25 23 22 20 19 20 19 19 19 19 18 18 17 16 16 16 15 15 15 15 15 15 15 15 16 16 16 16
30 30 31 32 32 32 32 32 31 31 31 31 29 29 27 26 27 25 25 23 21 20 19 19 19 19 19 19 19 18 18 17 16 16 16 16 16 16 17 17 17 18 18 18
29 30 30 30 31 33 31 30 31 31 30 30 30 29 27 26 26 26 26 24 23 22 21 20 20 20 20 20 19 19 19 18 17 17 17 17 17 17 18 18 18 19 19 19
29 31 32 31 31 32 32 30 31 31 30 30 30 29 27 26 26 25 25 24 23 21 20 20 20 20 20 20 19 19 19 18 18 18 19 18 19 19 18 18 18 19 19 20
29 30 30 30 30 31 30 30 30 30 30 29 29 28 27 26 24 23 23 23 22 21 20 20 20 20 21 20 19 19 20 19 19 20 20 20 19 19 19 19 19 20 21 21
28 29 29 29 28 29 29 29 28 28 28 28 28 27 25 24 23 22 22 21 21 20 20 19 19 19 19 21 21 20 19 19 19 19 19 19 20 20 20 21 21 21 22 23
25 25 26 26 26 28 26 26 25 26 26 26 26 26 24 23 21 20 20 20 20 20 19 19 19 19 19 19 18 18 18 19 19 19 19 19 20 20 21 22 22 23 23 24
24 24 24 25 24 25 25 25 25 25 26 25 25 24 23 22 21 20 20 19 19 19 19 18 18 18 18 18 17 17 18 19 19 20 20 21 21 22 22 22 22 23 23 24
21 22 22 23 23 24 24 24 25 24 24 24 23 23 22 21 21 20 20 18 18 18 18 17 17 17 17 17 17 16 17 18 19 19 19 20 20 21 22 22 22 23 24 24
20 20 21 21 22 22 23 23 23 23 22 22 22 22 21 21 21 20 19 19 19 19 18 18 17 16 16 17 17 17 17 17 18 19 20 20 20 21 21 23 23 24 24 25
20 20 21 21 22 22 22 22 22 22 21 21 21 21 20 20 19 19 18 18 18 18 18 17 18 18 18 17 17 18 18 18 19 19 19 20 20 21 22 22 23 24 25 26
20 21 21 22 22 21 19 20 21 21 21 21 21 21 20 19 19 18 17 17 17 17 18 18 18 19 19 19 19 19 19 19 20 20 20 20 21 21 22 23 24 25 26 26
20 19 19 20 21 21 19 19 19 19 19 19 20 19 19 18 18 17 16 17 17 16 16 17 18 18 18 19 19 19 19 19 19 19 20 20 21 22 23 23 24 25 26 26
17 17 17 18 18 18 18 18 18 18 18 18 18 18 18 17 16 16 15 15 15 15 15 15 16 16 16 16 17 17 17 18 19 19 20 21 21 22 23 23 24 25 26 27
15 16 17 17 18 17 17 17 17 17 17 17 16 16 15 15 15 15 15 15 15 15 16 15 15 15 15 16 16 16 16 17 18 18 19 20 21 22 23 24 25 26 27 28
15 16 16 17 17 17 17 16 17 17 16 15 15 15 14 14 14 14 14 14 14 15 15 15 15 15 15 15 15 16 17 17 18 19 20 21 22 22 24 25 26 27 28 29
15 15 15 16 16 16 16 15 15 15 14 14 13 13 13 13 13 13 13 13 14 14 15 15 14 14 15 16 17 18 18 19 20 20 22 23 24 25 26 26 27 28 28 28
Wind_Direction
213 211 211 212 214 217 220 223 227 228 228 225 230 230 230 232 238 244 248 250 255 258 259 260 261 256 259 263 265 264 263 264 266 267 266 261 253 250 248 246 246 248 249 250
213 212 213 214 213 215 220 222 225 226 225 221 226 230 231 232 239 245 246 251 257 258 259 259 260 260 262 265 267 264 261 262 262 264 264 261 253 249 247 245 247 249 250 252
214 215 216 217 215 217 218 221 224 225 223 221 226 229 232 237 239 244 248 256 259 258 258 256 258 260 262 265 266 265 265 264 263 264 260 257 257 252 248 249 250 249 251 252
217 217 220 218 218 220 221 221 223 223 221 222 229 231 233 237 241 246 253 259 260 257 256 255 256 260 264 265 265 263 263 265 264 261 257 254 257 256 251 249 250 251 252 254
220 220 222 219 219 221 223 222 223 223 222 223 228 231 233 236 240 243 250 257 260 256 255 256 257 259 263 265 269 266 262 263 262 259 259 261 263 258 253 252 254 253 254 256
221 222 221 218 220 221 222 222 223 224 221 222 227 233 237 242 243 248 252 252 252 251 252 254 257 260 264 266 268 267 261 259 258 257 255 259 262 261 255 253 253 255 253 254
222 223 221 217 216 218 221 220 221 224 224 228 231 233 237 241 245 250 250 251 250 252 254 256 258 261 264 263 265 266 262 260 257 256 256 258 261 260 258 257 257 257 255 256
221 222 220 218 216 218 220 220 221 223 226 231 234 233 234 239 246 250 247 251 252 253 256 258 260 262 263 262 262 263 261 259 257 256 259 261 263 264 261 259 259 259 261 261
220 221 219 219 219 219 220 221 222 224 227 233 232 236 238 241 246 249 252 253 254 253 254 257 260 263 262 260 258 258 257 257 257 257 259 262 264 265 264 260 260 263 264 266
220 219 218 218 219 218 219 222 224 226 228 232 234 236 239 243 245 247 249 252 256 257 255 256 258 260 261 257 256 257 259 259 260 259 261 262 264 266 266 265 266 268 266 267
222 219 219 217 219 219 220 222 225 225 226 230 234 236 239 239 241 246 249 253 254 256 255 255 256 258 257 257 254 254 257 260 262 261 261 261 263 266 267 269 267 268 269 268
223 223 222 221 221 220 220 223 223 224 225 228 231 234 235 236 239 244 248 250 252 253 255 256 256 255 254 256 252 253 254 257 258 260 261 262 264 265 266 268 268 269 271 272
223 222 222 221 219 219 219 220 222 225 227 230 232 234 235 235 238 241 245 248 250 254 256 255 256 255 254 255 253 250 250 253 256 257 260 263 265 266 266 266 268 271 273 275
225 224 225 222 221 222 221 221 220 223 227 231 233 232 234 236 237 239 242 245 249 253 253 254 256 255 254 255 256 255 253 252 255 257 259 263 267 269 270 269 272 275 276 278
226 226 225 225 224 222 221 222 224 225 227 229 230 231 232 236 238 238 240 243 247 250 252 254 255 254 254 255 256 257 255 254 256 258 260 263 267 271 272 272 273 275 278 280
224 224 225 225 223 220 221 223 224 225 227 227 227 227 228 233 236 237 238 240 244 248 250 253 253 254 254 253 256 256 254 255 257 259 262 265 268 271 272 273 273 276 280 282
223 224 223 219 217 215 218 218 219 223 225 224 223 224 228 230 233 235 238 239 242 245 248 250 252 254 255 256 257 254 254 255 257 260 263 266 269 272 274 275 277 280 283 285
224 222 217 215 212 214 216 217 218 219 220 222 224 225 228 230 232 234 238 243 245 246 247 249 251 253 254 253 254 254 255 256 258 261 264 267 270 271 274 275 277 281 284 287
216 218 215 212 211 213 214 215 215 216 217 219 220 224 226 230 234 237 242 244 244 246 246 248 252 255 254 253 256 260 263 262 265 267 269 272 274 275 276 277 280 282 285 287
212 211 209 209 212 213 213 212 210 211 214 216 220 223 226 229 232 236 240 243 244 244 247 251 255 258 259 260 259 262 266 268 270 272 274 274 277 279 281 283 283 285 287 288
208 209 210 210 210 210 210 210 210 211 213 215 219 222 223 226 230 234 238 240 243 246 248 251 256 259 261 264 265 267 270 271 272 274 276 278 280 282 283 285 287 289 290 291
205 207 209 210 208 210 212 211 210 212 212 214 215 219 223 227 231 234 239 240 242 246 249 255 260 261 263 266 268 270 273 273 274 275 277 280 282 284 286 287 288 290 291 291
201 204 206 207 209 214 212 207 206 208 210 212 214 219 223 227 232 235 238 240 244 249 253 258 262 263 264 268 269 271 273 273 275 277 279 282 284 286 287 288 289 291 292 293
196 197 196 195 199 202 203 202 204 207 210 213 215 219 224 229 234 238 239 242 246 251 256 260 264 267 268 271 273 274 274 274 276 279 281 283 285 287 288 290 291 292 294 295
189 190 192 193 193 194 196 197 200 205 208 212 215 218 224 231 237 239 241 245 250 253 256 259 263 266 268 270 271 273 276 279 281 283 284 285 286 288 290 292 293 294 295 296
184 187 189 191 192 195 198 200 202 205 208 209 213 219 225 230 235 238 241 244 248 252 255 259 262 265 268 270 272 276 279 282 284 285 287 289 290 291 293 294 295 296 296 297
178 181 185 189 193 196 199 199 199 202 205 209 214 219 225 230 235 239 243 246 250 253 256 259 262 263 268 273 274 277 280 282 284 286 288 291 294 295 296 297 297 297 298 298
Height
5782 5786 5790 5794 5798 5802 5805 5809 5814 5818 5822 5827 5829 5832 5834 5836 5839 5841 5843 5846 5847 5848 5849 5851 5851 5852 5852 5852 5852 5852 5852 5852 5852 5851 5851 5851 5852 5852 5853 5853 5854 5855 5855 5856
5776 5780 5784 5788 5792 5797 5801 5805 5809 5813 5818 5822 5824 5827 5829 5832 5835 5837 5840 5842 5844 5844 5846 5847 5847 5848 5848 5848 5848 5848 5848 5848 5847 5847 5847 5847 5848 5848 5849 5849 5850 5851 5851 5852
5770 5775 5778 5782 5788 5792 5796 5800 5804 5808 5814 5817 5820 5822 5825 5828 5831 5833 5836 5838 5839 5840 5842 5843 5843 5844 5844 5844 5844 5844 5844 5843 5843 5843 5843 5843 5844 5844 5844 5845 5846 5847 5847 5848
5765 5769 5772 5780 5784 5787 5791 5795 5799 5804 5808 5812 5815 5818 5821 5824 5827 5829 5831 5833 5834 5836 5837 5838 5839 5839 5840 5839 5839 5839 5839 5839 5838 5838 5837 5838 5839 5839 5840 5840 5841 5842 5842 5842
5758 5761 5766 5774 5777 5781 5786 5791 5795 5798 5803 5807 5810 5813 5816 5819 5822 5825 5827 5829 5830 5831 5832 5833 5834 5834 5834 5835 5835 5834 5834 5835 5835 5834 5834 5834 5834 5835 5835 5836 5837 5837 5838 5838
5751 5755 5760 5769 5773 5776 5781 5785 5790 5793 5797 5801 5804 5808 5812 5815 5817 5820 5821 5823 5825 5826 5827 5828 5829 5829 5830 5830 5830 5830 5830 5830 5830 5831 5831 5831 5831 5831 5831 5831 5832 5832 5833 5834
5745 5748 5754 5762 5767 5771 5776 5781 5784 5788 5792 5796 5800 5804 5808 5810 5812 5815 5817 5818 5820 5821 5822 5823 5824 5825 5825 5825 5826 5826 5826 5826 5826 5827 5827 5827 5827 5827 5827 5827 5828 5828 5829 5829
5739 5743 5751 5757 5761 5765 5770 5775 5779 5783 5787 5791 5795 5798 5801 5804 5807 5810 5811 5813 5815 5816 5817 5818 5819 5820 5820 5821 5821 5821 5821 5821 5822 5822 5822 5822 5822 5822 5822 5823 5823 5824 5824 5824
5734 5741 5746 5751 5755 5759 5764 5769 5774 5778 5782 5787 5790 5793 5796 5799 5801 5803 5805 5808 5809 5811 5812 5813 5814 5815 5815 5816 5816 5816 5817 5817 5817 5818 5818 5818 5818 5818 5818 5819 5819 5819 5819 5819
5729 5734 5739 5744 5748 5752 5758 5763 5768 5772 5777 5781 5785 5788 5791 5794 5795 5796 5800 5803 5805 5805 5806 5808 5809 5810 5810 5811 5811 5812 5813 5813 5813 5814 5814 5814 5815 5815 5815 5815 5815 5815 5815 5815
5723 5728 5733 5738 5742 5747 5751 5757 5761 5765 5770 5774 5778 5782 5785 5788 5789 5792 5795 5798 5799 5800 5801 5802 5804 5804 5805 5806 5807 5808 5808 5809 5809 5810 5810 5810 5810 5811 5811 5811 5810 5810 5810 5810
5718 5723 5728 5733 5737 5741 5746 5750 5755 5759 5764 5768 5772 5776 5778 5781 5784 5788 5790 5792 5794 5795 5796 5797 5798 5799 5800 5800 5801 5802 5803 5804 5805 5805 5806 5806 5806 5806 5806 5806 5806 5806 5805 5805
5713 5717 5721 5726 5731 5735 5739 5744 5749 5754 5758 5761 5765 5769 5772 5775 5779 5782 5784 5786 5788 5790 5790 5791 5792 5793 5794 5794 5795 5796 5797 5799 5800 5801 5801 5801 5801 5801 5801 5801 5800 5800 5800 5799
5707 5712 5716 5720 5724 5728 5733 5738 5742 5747 5751 5755 5758 5762 5766 5770 5773 5776 5779 5781 5783 5784 5784 5785 5786 5786 5787 5788 5789 5791 5792 5793 5795 5795 5796 5796 5796 5796 5796 5796 5795 5795 5794 5793
5701 5705 5710 5714 5718 5722 5726 5731 5736 5741 5745 5749 5752 5755 5760 5764 5767 5769 5772 5774 5776 5778 5779 5779 5780 5781 5782 5783 5784 5785 5787 5788 5789 5790 5790 5791 5791 5791 5791 5790 5790 5789 5788 5787
5695 5699 5703 5708 5711 5717 5721 5725 5730 5736 5740 5743 5747 5750 5755 5758 5761 5763 5766 5768 5771 5772 5773 5774 5775 5775 5776 5777 5779 5780 5781 5782 5783 5784 5784 5785 5785 5785 5784 5784 5783 5783 5782 5780
5690 5694 5698 5702 5707 5712 5716 5720 5725 5730 5734 5738 5741 5745 5749 5753 5756 5758 5761 5763 5765 5767 5768 5769 5770 5771 5771 5773 5773 5774 5775 5776 5777 5778 5778 5779 5779 5778 5778 5777 5776 5775 5774 5773
5686 5690 5694 5699 5703 5708 5712 5716 5721 5725 5729 5733 5737 5741 5745 5748 5751 5754 5756 5758 5760 5761 5763 5764 5765 5766 5767 5768 5768 5769 5770 5771 5772 5772 5772 5772 5772 5771 5771 5770 5769 5768 5767 5765
5682 5686 5691 5695 5700 5705 5709 5712 5717 5721 5725 5728 5733 5737 5740 5744 5747 5750 5752 5753 5755 5757 5758 5759 5761 5762 5762 5763 5763 5764 5765 5765 5766 5766 5766 5766 5765 5765 5764 5763 5762 5760 5759 5757
5679 5683 5688 5693 5697 5701 5705 5709 5713 5717 5721 5725 5729 5733 5736 5740 5743 5745 5747 5749 5751 5752 5754 5755 5756 5757 5758 5758 5759 5759 5759 5760 5760 5760 5760 5760 5759 5758 5757 5756 5754 5753 5751 5749
5677 5681 5686 5690 5694 5698 5702 5705 5709 5713 5717 5721 5725 5729 5732 5735 5738 5741 5743 5745 5746 5748 5749 5750 5751 5752 5753 5753 5754 5754 5754 5754 5754 5754 5754 5753 5752 5751 5750 5749 5747 5745 5744 5742
5675 5679 5683 5687 5691 5695 5699 5702 5706 5709 5713 5717 5721 5725 5728 5731 5734 5736 5738 5740 5742 5743 5744 5745 5746 5746 5747 5748 5748 5748 5748 5748 5748 5747 5747 5746 5745 5744 5743 5741 5740 5738 5736 5733
5673 5677 5681 5685 5689 5692 5696 5700 5703 5706 5710 5714 5718 5721 5724 5727 5729 5731 5734 5735 5737 5738 5739 5740 5740 5741 5741 5742 5742 5742 5742 5742 5741 5741 5740 5740 5738 5737 5736 5734 5732 5730 5728 5725
5671 5675 5679 5682 5686 5690 5694 5698 5701 5705 5708 5712 5715 5718 5721 5723 5725 5727 5729 5730 5732 5733 5734 5735 5735 5736 5736 5736 5736 5736 5736 5735 5735 5735 5734 5733 5732 5730 5729 5727 5725 5722 5720 5717
5670 5674 5677 5681 5685 5689 5693 5696 5699 5703 5706 5709 5711 5714 5717 5719 5721 5723 5724 5726 5728 5729 5730 5730 5731 5731 5731 5731 5731 5730 5730 5730 5729 5728 5727 5726 5725 5723 5721 5719 5717 5714 5712 5709
5669 5672 5676 5680 5684 5687 5691 5694 5697 5700 5703 5706 5708 5711 5713 5715 5717 5719 5721 5722 5723 5724 5725 5725 5726 5726 5726 5726 5726 5725 5725 5724 5723 5722 5721 5719 5717 5716 5714 5711 5709 5706 5704 5701
5669 5672 5675 5679 5682 5686 5689 5692 5695 5698 5701 5703 5706 5708 5710 5712 5714 5715 5716 5718 5719 5719 5720 5721 5721 5721 5721 5721 5720 5720 5719 5718 5717 5716 5714 5712 5710 5708 5706 5703 5701 5698 5695 5692